This is the latest recevied weather packets stored in our database for station/object KD8DNO-13. If no packets are shown the sender has not sent any weather packets the latest 10 day(s).
| Time | Temp. | Humidity | Pressure | Rain* | Wind** | Luminosity | Snow |
|---|---|---|---|---|---|---|---|
| 1788104583 | 26.67° C | 70% | 1023 hPa | 0 mm | - | - | - |
| 1788104283 | 27.22° C | 68% | 1023 hPa | 0 mm | - | - | - |
| 1788103983 | 27.22° C | 68% | 1023 hPa | 0 mm | - | - | - |
| 1788103683 | 26.67° C | 68% | 1023 hPa | 0 mm | - | - | - |
| 1788103383 | 26.11° C | 71% | 1022.6 hPa | 0 mm | - | - | - |
| 1788103083 | 26.11° C | 70% | 1022.6 hPa | 0 mm | - | - | - |
| 1788102784 | 26.67° C | 68% | 1022.6 hPa | 0 mm | - | - | - |
| 1788102483 | 26.67° C | 69% | 1022.6 hPa | 0 mm | - | - | - |
| 1788102183 | 26.11° C | 70% | 1022.3 hPa | 0 mm | - | - | - |
| 1788101883 | 26.67° C | 70% | 1022.3 hPa | 0 mm | - | - | - |
| 1788101583 | 26.11° C | 70% | 1022.3 hPa | 0 mm | - | - | - |
| 1788101283 | 26.67° C | 72% | 1022.3 hPa | 0 mm | - | - | - |
| 1788100983 | 26.67° C | 70% | 1022.3 hPa | 0 mm | - | - | - |
| 1788100683 | 26.11° C | 70% | 1022 hPa | 0 mm | - | - | - |
| 1788100383 | 25.56° C | 72% | 1022 hPa | 0 mm | - | - | - |
| 1788100083 | 25.56° C | 73% | 1022 hPa | 0 mm | - | - | - |
| 1788099783 | 25.56° C | 71% | 1022.3 hPa | 0 mm | - | - | - |
| 1788099483 | 25.56° C | 71% | 1022.3 hPa | 0 mm | - | - | - |
| 1788099183 | 25° C | 74% | 1022.3 hPa | 0 mm | - | - | - |
| 1788098883 | 24.44° C | 77% | 1022.3 hPa | 0 mm | - | - | - |
| 1788098583 | 23.89° C | 80% | 1022.3 hPa | 0 mm | - | - | - |
| 1788098283 | 23.33° C | 79% | 1022.3 hPa | 0 mm | - | - | - |
| 1788097983 | 23.33° C | 79% | 1022.3 hPa | 0 mm | - | - | - |
| 1788097683 | 23.89° C | 78% | 1022.3 hPa | 0 mm | - | - | - |
| 1788097384 | 23.33° C | 78% | 1022.3 hPa | 0 mm | - | - | - |
* Rain latest hour (hover to see other rain measurements)
** Current wind speed in m/s (hover to see current wind gust speed)